Weather Roundup
Issued by NWS

Home | Current Version | Previous Version | Text Only | Print | Product List | Glossary On
Versions: 1 2 3 4 5 6 7 8 9 10 11 12 13 14 15 16 17 18 19 20 21 22 23 24 25 26 27 28 29 30 31 32 33 34 35 36 37 38 39 40 41 42 43 44 45 46 47 48 49 50
000
NZUS93 KARX 240859
HRRWXR

CURRENT HOURLY OBSERVATIONS ACROSS
MUCH OF THE UPPER MISSISSIPPI VALLEY
NATIONAL WEATHER SERVICE LA CROSSE WI
300 AM CST FRI FEB 24 2017


...SOUTHEAST MINNESOTA...


CITY           SKY/WX    TMP DP  RH WIND       PRES   REMARKS
ROCHESTER      FOG       28  27  96 N20       29.72R VSB 1/4 WCI  15
ROCHESTER/MAYO CLOUDY    28  28 100 N14G22    29.73S WCI  17
WINONA         LGT SNOW  32  30  93 NE8G16    29.72F WCI  25
AUSTIN         CLOUDY    28  27  93 N13G21    29.75R WCI  18
ALBERT LEA     HVY SNOW  28  28 100 N18G24    29.76R VSB 1/4 WCI  16
DODGE CENTER   SNOW      27  27 100 N16G24    29.76R WCI  14
PRESTON        CLOUDY    30  28  94 N14G21    29.68R THUNDER WCI  19
OWATONNA       CLOUDY    27  25  93 N13       29.80R WCI  16
FARIBAULT      LGT SNOW  27  27 100 N9        29.82R WCI  17
$$

...ELSEWHERE IN MINNESOTA...


CITY           SKY/WX    TMP DP  RH WIND       PRES   REMARKS
MINNEAPOLIS    CLOUDY    28  17  63 N18G25    29.85R WCI  15
INTNL FALLS    CLOUDY    12   3  67 N5        30.06S WCI   4
DULUTH         CLOUDY    19  13  77 N9        29.93F WCI   8
RED WING       LGT SNOW  28  27  93 NE7       29.79F VSB 3/4 WCI  21
REDWOOD FALLS  CLOUDY    27  16  63 NE13G22   29.88R WCI  16
MANKATO        FLURRIES  27  22  81 NE15      29.84R WCI  15
WORTHINGTON    LGT SNOW  25  22  88 N21G30    29.77F FOG     WCI  11
FAIRMONT       SNOW      26  25  96 N18G25    29.78F VSB 1/2 WCI  13
$$

...SOUTHWEST WISCONSIN...


CITY           SKY/WX    TMP DP  RH WIND       PRES   REMARKS
LA CROSSE      LGT SNOW  34  32  92 NE10      29.67F FOG     WCI  26
PRAIRIE DU CHI MIX PCPN  32  32 100 NE12G20   29.59F WCI  23
BOSCOBEL       MIX PCPN  34  30  85 NE14G26   29.60F WCI  25
LONE ROCK      NOT AVBL
PLATTEVILLE    CLOUDY    33  33 100 NE25G31   29.57F WCI  20
FORT MC COY    LGT SNOW  32  30  93 NE12G21   29.73F WCI  23
CAMP DOUGLAS   LGT SNOW  32  28  86 NE9G24    29.71S VSB 1   WCI  24
MAUSTON-NEW LI LGT SNOW  31  30  96 NE6       29.70F VSB 1   WCI  25
VIROQUA        CLOUDY    31  31  99 NE21G28   29.63F WCI  19
WIS DELLS      LGT SNOW  31  30  96 NE12G20   29.69F WCI  21
$$

...ELSEWHERE IN WISCONSIN...


CITY           SKY/WX    TMP DP  RH WIND       PRES   REMARKS
MILWAUKEE      TSTM      36  33  89 NE24G31   29.63F FOG     WCI  24
MADISON        LGT RAIN  33  30  88 NE22G31   29.64F WCI  21
GREEN BAY      LGT SNOW  30  30 100 NE23G32   29.79F VSB 3/4 WCI  17
EAU CLAIRE     LGT SNOW  29  26  89 NE13      29.78F FOG     WCI  19
BLACK RVR FLS  LGT SNOW  32  32 100 NE9       29.73F WCI  24
MEDFORD        LGT SNOW  26  23  91 NE20      29.76F WCI  12
WAUSAU         HVY SNOW  28  27  96 NE12G20   29.76F VSB 1/4 WCI  18
WIS RAPIDS     LGT SNOW  30  28  92 E12G23    29.73F FOG     WCI  20
MARSHFIELD     LGT SNOW  29  27  92 NE13      29.71F FOG     WCI  19
RICE LAKE      CLOUDY    29  21  72 N18G24    29.84F WCI  16
$$

...NORTHEAST IOWA...


CITY           SKY/WX    TMP DP  RH WIND       PRES   REMARKS
WATERLOO       LGT RAIN  34  30  86 NE15      29.61R FOG     WCI  24
DUBUQUE        MIX PCPN  33  33 100 NE26G36   29.52F FOG     WCI  20
DECORAH        LGT RAIN  32  30  93 NE14G28   29.57R WCI  22
MASON CITY     FOG       29 N/A N/A N25G31    29.71F VSB 1/4 WCI  14
CHARLES CITY   LGT SNOW  32  32 100 N14       29.69R VSB 1   WCI  22
OELWEIN        LGT RAIN  34  34 100 NE25G32   29.60R WCI  21
$$

...ELSEWHERE IN IOWA...


CITY           SKY/WX    TMP DP  RH WIND       PRES   REMARKS
DES MOINES     CLOUDY    36  33  89 NE22G29   29.53R WCI  25
IOWA CITY      CLOUDY    38  34  85 NE17G25   29.50S WCI  28
FORT DODGE     CLOUDY    28  25  86 N24G35    29.61F WCI  14
MARSHALLTOWN   LGT RAIN  33  33 100 NE20G29   29.54F WCI  21
CEDAR RAPIDS   CLOUDY    35  35 100 E18       29.51R FOG     WCI  24
$$

...NORTHERN ILLINOIS...


CITY           SKY/WX    TMP DP  RH WIND       PRES   REMARKS
CHICAGO-OHARE  CLOUDY    40  38  93 NE13      29.56F WCI  32
CHICAGO-MIDWAY CLOUDY    41  38  89 N8        29.55F FOG
MOLINE         CLOUDY    41  36  82 E16       29.47F
ROCKFORD       LGT RAIN  38  35  89 NE15      29.57F WCI  29
PEORIA         MOCLDY    47  46  97 E6        29.45F
$$

NOTE: "FAIR" INDICATES FEW OR NO CLOUDS BELOW 12,000 FEET WITH NO
SIGNIFICANT WEATHER AND/OR OBSTRUCTIONS TO VISIBILITY. WIND
SPEEDS ARE IN MILES-PER-HOUR.




USA.gov is the U.S. government's official web portal to all federal, state and local government web resources and services.